TimeCST,TemperatureF,Dew PointF,Humidity,Sea Level PressureIn,VisibilityMPH,Wind Direction,Wind SpeedMPH,Gust SpeedMPH,PrecipitationIn,Events,Conditions,WindDirDegrees,DateUTC
12:15 AM,28.6,28.6,100,30.21,7.0,Calm,Calm,-,N/A,,Clear,0,2012-12-27 06:15:00
12:35 AM,28.0,28.0,100,30.20,4.0,Calm,Calm,-,N/A,,Clear,0,2012-12-27 06:35:00
12:55 AM,27.5,27.5,100,30.21,5.0,Calm,Calm,-,N/A,,Clear,0,2012-12-27 06:55:00
1:15 AM,27.5,27.5,100,30.21,5.0,Calm,Calm,-,N/A,,Clear,0,2012-12-27 07:15:00
1:35 AM,27.7,27.7,100,30.21,5.0,Calm,Calm,-,N/A,,Clear,0,2012-12-27 07:35:00
1:55 AM,27.1,27.1,100,30.19,7.0,Calm,Calm,-,N/A,,Clear,0,2012-12-27 07:55:00
2:15 AM,27.0,27.0,100,30.19,5.0,Calm,Calm,-,N/A,,Clear,0,2012-12-27 08:15:00
2:35 AM,26.8,26.8,100,30.18,5.0,Calm,Calm,-,N/A,,Clear,0,2012-12-27 08:35:00
3:15 AM,27.3,27.3,100,30.18,7.0,Calm,Calm,-,N/A,,Clear,0,2012-12-27 09:15:00
3:35 AM,27.5,27.5,100,30.17,7.0,Calm,Calm,-,N/A,,Clear,0,2012-12-27 09:35:00
3:55 AM,27.9,27.9,100,30.17,10.0,Calm,Calm,-,N/A,,Clear,0,2012-12-27 09:55:00
4:15 AM,28.0,28.0,100,30.17,10.0,Calm,Calm,-,N/A,,Clear,0,2012-12-27 10:15:00
4:35 AM,27.3,27.3,100,30.16,7.0,Calm,Calm,-,N/A,,Clear,0,2012-12-27 10:35:00
4:55 AM,27.3,27.3,100,30.16,7.0,Calm,Calm,-,N/A,,Clear,0,2012-12-27 10:55:00
5:15 AM,27.1,27.1,100,30.16,7.0,Calm,Calm,-,N/A,,Clear,0,2012-12-27 11:15:00
5:35 AM,26.6,26.6,100,30.16,7.0,Calm,Calm,-,N/A,,Clear,0,2012-12-27 11:35:00
5:55 AM,26.6,26.6,100,30.18,7.0,Calm,Calm,-,N/A,,Clear,0,2012-12-27 11:55:00
6:35 AM,25.9,25.9,100,30.19,7.0,Calm,Calm,-,N/A,,Clear,0,2012-12-27 12:35:00
6:55 AM,26.4,26.4,100,30.19,7.0,Calm,Calm,-,N/A,,Clear,0,2012-12-27 12:55:00
7:15 AM,26.8,26.8,100,30.20,10.0,Calm,Calm,-,N/A,,Clear,0,2012-12-27 13:15:00
7:35 AM,26.1,26.1,100,30.20,7.0,Calm,Calm,-,N/A,,Clear,0,2012-12-27 13:35:00
7:55 AM,26.8,26.8,100,30.20,7.0,Calm,Calm,-,N/A,,Clear,0,2012-12-27 13:55:00
8:15 AM,28.0,28.0,100,30.20,7.0,Calm,Calm,-,N/A,,Clear,0,2012-12-27 14:15:00
8:35 AM,29.8,29.8,100,30.20,7.0,Calm,Calm,-,N/A,,Clear,0,2012-12-27 14:35:00
8:55 AM,30.9,30.9,100,30.20,7.0,Calm,Calm,-,N/A,,Clear,0,2012-12-27 14:55:00
9:15 AM,32.0,32.0,100,30.21,10.0,ESE,5.8,-,N/A,,Clear,110,2012-12-27 15:15:00
9:35 AM,32.9,32.7,99,30.22,10.0,ENE,3.5,-,N/A,,Clear,60,2012-12-27 15:35:00
9:55 AM,33.8,31.8,92,30.22,10.0,SSE,3.5,-,N/A,,Scattered Clouds,150,2012-12-27 15:55:00
10:15 AM,35.4,31.6,86,30.22,10.0,South,6.9,-,N/A,,Mostly Cloudy,170,2012-12-27 16:15:00
10:35 AM,36.5,30.9,80,30.21,10.0,SE,5.8,-,N/A,,Scattered Clouds,140,2012-12-27 16:35:00
10:55 AM,36.7,30.9,80,30.22,10.0,SE,3.5,-,N/A,,Scattered Clouds,140,2012-12-27 16:55:00
11:15 AM,36.1,30.2,79,30.21,10.0,Calm,Calm,-,N/A,,Scattered Clouds,0,2012-12-27 17:15:00
11:35 AM,37.4,30.4,76,30.21,10.0,Calm,Calm,-,N/A,,Clear,0,2012-12-27 17:35:00
11:55 AM,39.7,30.9,71,30.19,10.0,South,4.6,-,N/A,,Clear,190,2012-12-27 17:55:00
12:15 PM,41.5,30.4,65,30.17,10.0,Calm,Calm,-,N/A,,Clear,0,2012-12-27 18:15:00
12:35 PM,42.8,30.2,61,30.15,10.0,East,4.6,-,N/A,,Clear,100,2012-12-27 18:35:00
12:55 PM,44.1,29.8,57,30.14,10.0,SE,3.5,-,N/A,,Clear,130,2012-12-27 18:55:00
1:15 PM,44.8,29.5,55,30.13,10.0,SE,5.8,-,N/A,,Clear,130,2012-12-27 19:15:00
1:35 PM,45.9,29.7,53,30.11,10.0,SE,5.8,-,N/A,,Clear,130,2012-12-27 19:35:00
2:15 PM,46.9,29.1,50,30.09,10.0,East,4.6,-,N/A,,Clear,100,2012-12-27 20:15:00
2:35 PM,48.0,28.9,48,30.08,10.0,East,4.6,-,N/A,,Clear,90,2012-12-27 20:35:00
2:55 PM,47.7,29.3,49,30.08,10.0,East,6.9,-,N/A,,Clear,80,2012-12-27 20:55:00
3:15 PM,47.8,29.1,48,30.07,10.0,East,6.9,-,N/A,,Clear,80,2012-12-27 21:15:00
3:35 PM,47.7,29.5,49,30.08,10.0,ESE,4.6,-,N/A,,Clear,110,2012-12-27 21:35:00
3:55 PM,46.8,29.3,51,30.08,10.0,East,3.5,-,N/A,,Clear,100,2012-12-27 21:55:00
4:15 PM,45.7,30.7,56,30.08,10.0,East,4.6,-,N/A,,Scattered Clouds,100,2012-12-27 22:15:00
4:35 PM,45.0,31.3,59,30.07,10.0,ESE,6.9,-,N/A,,Overcast,110,2012-12-27 22:35:00
4:55 PM,44.6,31.6,60,30.06,10.0,East,4.6,-,N/A,,Overcast,100,2012-12-27 22:55:00
5:15 PM,43.9,32.0,63,30.06,10.0,East,5.8,-,N/A,,Overcast,100,2012-12-27 23:15:00
5:35 PM,43.3,32.2,65,30.07,10.0,ESE,5.8,-,N/A,,Overcast,110,2012-12-27 23:35:00
5:55 PM,42.8,32.2,66,30.07,10.0,East,4.6,-,N/A,,Overcast,100,2012-12-27 23:55:00
6:35 PM,41.9,32.9,70,30.07,10.0,East,5.8,-,N/A,,Overcast,100,2012-12-28 00:35:00
6:55 PM,41.9,33.1,71,30.06,10.0,East,4.6,-,N/A,,Overcast,100,2012-12-28 00:55:00
7:15 PM,41.5,32.9,71,30.07,10.0,ESE,8.1,-,N/A,,Overcast,120,2012-12-28 01:15:00
7:35 PM,41.2,32.9,72,30.06,10.0,SE,5.8,-,N/A,,Overcast,130,2012-12-28 01:35:00
7:55 PM,41.2,32.2,70,30.06,10.0,ESE,5.8,-,N/A,,Overcast,120,2012-12-28 01:55:00
8:15 PM,41.2,32.5,71,30.05,10.0,ESE,4.6,-,N/A,,Overcast,110,2012-12-28 02:15:00
8:35 PM,41.2,32.5,71,30.05,10.0,SE,4.6,-,N/A,,Overcast,130,2012-12-28 02:35:00
8:55 PM,41.2,32.9,72,30.04,10.0,SE,5.8,-,N/A,,Overcast,130,2012-12-28 02:55:00
9:15 PM,41.4,32.9,72,30.04,10.0,Calm,Calm,-,N/A,,Overcast,0,2012-12-28 03:15:00
9:35 PM,41.5,33.3,72,30.04,10.0,Calm,Calm,-,N/A,,Overcast,0,2012-12-28 03:35:00
9:55 PM,41.9,33.8,73,30.03,10.0,East,4.6,-,N/A,,Overcast,100,2012-12-28 03:55:00
10:15 PM,41.7,33.4,72,30.04,10.0,East,3.5,-,N/A,,Overcast,100,2012-12-28 04:15:00
10:35 PM,41.9,33.8,73,30.03,10.0,Calm,Calm,-,N/A,,Overcast,0,2012-12-28 04:35:00
10:55 PM,41.0,35.6,81,30.02,10.0,NE,3.5,-,N/A,,Drizzle,50,2012-12-28 04:55:00
11:15 PM,40.6,36.5,85,30.02,10.0,Calm,Calm,-,N/A,,Overcast,0,2012-12-28 05:15:00
11:35 PM,41.0,36.9,85,30.01,10.0,Calm,Calm,-,N/A,,Overcast,0,2012-12-28 05:35:00
11:55 PM,41.2,36.5,83,30.00,10.0,East,5.8,-,N/A,,Light Drizzle,100,2012-12-28 05:55:00